Change the Weather History Date:

Saturday, March 29, 2014

  Actual Average Record
Temperature  
Mean Temperature 44 °F -  
Max Temperature 50 °F 50 °F 76 °F (1989)
Min Temperature 37 °F 27 °F 5 °F (1956)
Degree Days  
Heating Degree Days 22    
Moisture  
Dew Point 36 °F    
Average Humidity 75    
Maximum Humidity 93    
Minimum Humidity 54    
Precipitation  
Precipitation 0.34 in - - ()
Sea Level Pressure  
Sea Level Pressure 30.19 in    
Wind  
Wind Speed 7 mph (ENE)    
Max Wind Speed 16 mph    
Max Gust Speed 20 mph    
Visibility 9 miles    
Events Rain    
Averages and records for this station are not official NWS values.
T = Trace of Precipitation, MM = Missing Value Source: NWS Daily Summary

Daily Weather History Graph

Daily Weather History Graph

Search for Another Location

Airport or City:

Trip Planner

Search our weather history database for the weather conditions in past years. The results will help you decide how hot, cold, wet, or windy it might be!

Date:

Astronomy

Mar. 29, 2014 Rise Set
Actual Time 6:33 AM EDT 7:08 PM EDT
Civil Twilight 6:04 AM EDT 7:37 PM EDT
Nautical Twilight 5:31 AM EDT 8:10 PM EDT
Astronomical Twilight 4:56 AM EDT 8:45 PM EDT
Moon 5:41 AM EDT (3/29) 6:09 PM EDT (3/29)
Length of Visible Light 13h 32m
Length of Day
12h 35m
Waning Crescent, 2% of the Moon is Illuminated
Mar 29
Waning Crescent
Mar 30
New
Apr 7
First Quarter
Apr 15
Full
Apr 22
Last Quarter

Hourly Weather History & Observations

Time (EDT) Temp. Windchill Dew Point Humidity Pressure Visibility Wind Dir Wind Speed Gust Speed Precip Events Conditions
12:53 AM 46.0 °F 43.9 °F 43.0 °F 89% 30.07 in 6.0 mi North 4.6 mph - N/A   Mostly Cloudy
1:53 AM 48.9 °F - 43.0 °F 80% 30.10 in 10.0 mi WSW 5.8 mph - N/A   Partly Cloudy
2:53 AM 46.9 °F - 41.0 °F 80% 30.11 in 10.0 mi West 3.5 mph - N/A   Clear
3:53 AM 45.0 °F - 39.0 °F 80% 30.13 in 10.0 mi Calm Calm - N/A   Clear
4:53 AM 45.0 °F 39.3 °F 39.0 °F 80% 30.12 in 10.0 mi NW 11.5 mph - N/A   Clear
5:53 AM 43.0 °F - 37.9 °F 82% 30.16 in 10.0 mi Calm Calm - N/A   Scattered Clouds
6:53 AM 37.0 °F - 35.1 °F 93% 30.21 in 9.0 mi Calm Calm - N/A   Scattered Clouds
7:53 AM 43.0 °F 36.8 °F 37.9 °F 82% 30.23 in 10.0 mi North 11.5 mph - N/A   Scattered Clouds
8:53 AM 46.0 °F 39.3 °F 36.0 °F 68% 30.25 in 10.0 mi North 16.1 mph - N/A   Mostly Cloudy
9:53 AM 46.9 °F - 34.0 °F 61% 30.27 in 10.0 mi North 10.4 mph - N/A   Mostly Cloudy
10:53 AM 48.9 °F - 35.1 °F 59% 30.27 in 10.0 mi NE 4.6 mph - N/A   Mostly Cloudy
11:53 AM 48.9 °F - 35.1 °F 59% 30.27 in 10.0 mi Variable 5.8 mph - N/A   Overcast
12:24 PM 50.0 °F - 36.0 °F 59% 30.22 in 10.0 mi East 9.2 mph - N/A   Overcast
12:53 PM 50.0 °F - 35.1 °F 57% 30.26 in 10.0 mi ESE 10.4 mph - N/A   Overcast
1:16 PM 48.9 °F - 34.0 °F 56% 30.21 in 10.0 mi SE 11.5 mph - N/A   Overcast
1:53 PM 48.9 °F - 33.1 °F 54% 30.25 in 10.0 mi SE 11.5 mph - N/A   Overcast
2:53 PM 46.9 °F - 34.0 °F 61% 30.25 in 10.0 mi SE 10.4 mph - N/A   Overcast
3:53 PM 46.0 °F 42.5 °F 33.1 °F 61% 30.25 in 10.0 mi Variable 6.9 mph - N/A   Overcast
4:53 PM 45.0 °F 40.6 °F 35.1 °F 68% 30.21 in 10.0 mi East 8.1 mph - 0.00 in Rain Light Rain
5:53 PM 42.1 °F 37.1 °F 35.1 °F 76% 30.21 in 10.0 mi East 8.1 mph - 0.00 in Rain Light Rain
6:53 PM 41.0 °F 37.1 °F 35.1 °F 79% 30.20 in 10.0 mi East 5.8 mph - 0.00 in Rain Light Rain
7:53 PM 39.0 °F 35.7 °F 35.1 °F 86% 30.19 in 8.0 mi ENE 4.6 mph - 0.05 in Rain Light Rain
8:27 PM 39.0 °F 36.8 °F 35.1 °F 86% 30.14 in 6.0 mi ENE 3.5 mph - 0.06 in Rain Rain
8:53 PM 37.9 °F 32.7 °F 35.1 °F 89% 30.17 in 6.0 mi NE 6.9 mph - 0.10 in Rain Light Rain
9:33 PM 37.9 °F 32.1 °F 36.0 °F 93% 30.11 in 7.0 mi NE 8.1 mph - 0.02 in Rain Light Rain
9:53 PM 37.9 °F 31.5 °F 36.0 °F 93% 30.14 in 6.0 mi NE 9.2 mph - 0.04 in Rain Light Rain
10:53 PM 39.0 °F 32.3 °F 36.0 °F 89% 30.11 in 5.0 mi ENE 10.4 mph - 0.07 in Rain Rain
11:53 PM 37.9 °F 31.5 °F 36.0 °F 93% 30.07 in 6.0 mi NE 9.2 mph 19.6 mph 0.08 in Rain Light Rain